Location: Recife
(8.0585°S, 34.8848°W)
Time: 07:15:50
(UTC-03:00)

Vanguard 1 - Pass Details

Date: 17 April 2026
Orbit: 654 x 3817 km, 34.2° (Epoch: 13 May)

Event Time Altitude Azimuth Distance (km) Brightness Sun altitude
Rises 07:33:23 0° 308° (NW) 4,509 13.2 30.8°
Reaches altitude 10° 07:37:01 10° 309° (NW) 3,106 12.4 31.7°
Maximum altitude 07:43:55 80° 35° (NE) 833 10.5 33.3°
Drops below altitude 10° 07:48:34 10° 122° (ESE) 2,124 12.4 34.4°
Sets 07:50:39 0° 123° (ESE) 2,980 13.0 34.9°
